• In Belarus
  • List of Countries
  • For 7 days
  • Water Temperature
  • Satellite Maps
  • Weather Map
  • Weather Widgets
  • user-avatar
    Login

    Hourly Weather Astrahan'

    Today, 20 March, Wednesday

    Time Temperature Precipitation Wind Pressure Humidity
    00:00 +4°C° 0 mm 2 mps 767 mmHg 65%
    01:00 +4°C° 0 mm 2 mps 767 mmHg 68%
    02:00 +2°C° 0 mm 3 mps 767 mmHg 71%
    03:00 +1°C° 0 mm 3 mps 766 mmHg 75%
    04:00 +1°C° 0 mm 3 mps 767 mmHg 77%
    05:00 +1°C° 0 mm 3 mps 767 mmHg 79%
    06:00 0°C° 0 mm 3 mps 767 mmHg 82%
    07:00 +1°C° 0 mm 3 mps 767 mmHg 76%
    08:00 +3°C° 0 mm 3 mps 767 mmHg 70%
    09:00 +4°C° 0 mm 3 mps 767 mmHg 64%
    10:00 +5°C° 0 mm 3 mps 767 mmHg 58%
    11:00 +8°C° 0 mm 3 mps 767 mmHg 52%
    12:00 +8°C° 0 mm 4 mps 767 mmHg 46%
    13:00 +10°C° 0 mm 4 mps 766 mmHg 43%
    14:00 +11°C° 0 mm 4 mps 766 mmHg 40%
    15:00 +12°C° 0 mm 4 mps 766 mmHg 37%
    16:00 +11°C° 0 mm 3 mps 766 mmHg 39%
    17:00 +10°C° 0 mm 3 mps 766 mmHg 40%
    18:00 +10°C° 0 mm 3 mps 765 mmHg 42%
    19:00 +9°C° 0 mm 2 mps 766 mmHg 45%
    20:00 +8°C° 0 mm 2 mps 766 mmHg 48%
    21:00 +8°C° 0 mm 1 mps 766 mmHg 51%
    22:00 +7°C° 0 mm 1 mps 766 mmHg 53%
    23:00 +7°C° 0 mm 1 mps 766 mmHg 55%

    Tomorrow, 21 March, Thursday

    Time Temperature Precipitation Wind Pressure Humidity
    00:00 +6°C° 0 mm 1 mps 765 mmHg 57%
    01:00 +6°C° 0 mm 1 mps 765 mmHg 58%
    02:00 +6°C° 0 mm 1 mps 765 mmHg 60%
    03:00 +4°C° 0 mm 2 mps 765 mmHg 61%
    04:00 +4°C° 0 mm 2 mps 765 mmHg 63%
    05:00 +3°C° 0 mm 2 mps 765 mmHg 65%
    06:00 +3°C° 0 mm 2 mps 765 mmHg 66%
    07:00 +4°C° 0 mm 2 mps 765 mmHg 61%
    08:00 +6°C° 0 mm 2 mps 765 mmHg 55%
    09:00 +7°C° 0 mm 2 mps 766 mmHg 49%
    10:00 +8°C° 0 mm 2 mps 765 mmHg 43%
    11:00 +10°C° 0 mm 2 mps 765 mmHg 37%
    12:00 +12°C° 0 mm 2 mps 765 mmHg 32%
    13:00 +13°C° 0 mm 2 mps 765 mmHg 30%
    14:00 +13°C° 0 mm 2 mps 765 mmHg 28%
    15:00 +14°C° 0 mm 2 mps 764 mmHg 26%
    16:00 +13°C° 0 mm 1 mps 764 mmHg 27%
    17:00 +13°C° 0 mm 1 mps 764 mmHg 29%
    18:00 +12°C° 0 mm 1 mps 763 mmHg 30%
    19:00 +11°C° 0 mm 1 mps 764 mmHg 34%
    20:00 +10°C° 0 mm 1 mps 764 mmHg 37%
    21:00 +9°C° 0 mm 1 mps 764 mmHg 41%
    22:00 +8°C° 0 mm 2 mps 763 mmHg 44%
    23:00 +7°C° 0 mm 2 mps 763 mmHg 47%

    Day after tomorrow, 22 March, Friday

    Time Temperature Precipitation Wind Pressure Humidity
    00:00 +7°C° 0 mm 2 mps 763 mmHg 51%
    01:00 +6°C° 0 mm 2 mps 763 mmHg 53%
    02:00 +6°C° 0 mm 2 mps 763 mmHg 56%
    03:00 +5°C° 0 mm 3 mps 763 mmHg 58%
    04:00 +4°C° 0 mm 3 mps 762 mmHg 58%
    05:00 +5°C° 0 mm 2 mps 762 mmHg 59%
    06:00 +5°C° 0 mm 2 mps 762 mmHg 59%
    07:00 +5°C° 0 mm 3 mps 762 mmHg 58%
    08:00 +7°C° 0 mm 3 mps 763 mmHg 57%
    09:00 +8°C° 0 mm 3 mps 763 mmHg 56%
    10:00 +9°C° 0 mm 3 mps 763 mmHg 57%
    11:00 +8°C° 0 mm 4 mps 763 mmHg 58%
    12:00 +10°C° 0 mm 4 mps 763 mmHg 58%
    13:00 +11°C° 0 mm 4 mps 762 mmHg 50%
    14:00 +11°C° 0 mm 4 mps 762 mmHg 41%
    15:00 +12°C° 0 mm 4 mps 762 mmHg 33%
    16:00 +11°C° 0 mm 4 mps 762 mmHg 34%
    17:00 +11°C° 0 mm 3 mps 762 mmHg 35%
    18:00 +10°C° 0 mm 3 mps 762 mmHg 36%
    19:00 +10°C° 0.1 mm 3 mps 762 mmHg 41%
    20:00 +9°C° 0.1 mm 3 mps 762 mmHg 46%
    21:00 +9°C° 0.1 mm 3 mps 762 mmHg 51%
    22:00 +8°C° 0 mm 3 mps 762 mmHg 53%
    23:00 +7°C° 0 mm 3 mps 762 mmHg 56%

    23 March, Saturday

    Time Temperature Precipitation Wind Pressure Humidity
    00:00 +5°C° 0 mm 3 mps 762 mmHg 59%
    01:00 +5°C° 0 mm 3 mps 762 mmHg 62%
    02:00 +4°C° 0 mm 3 mps 761 mmHg 65%
    03:00 +4°C° 0 mm 4 mps 761 mmHg 67%
    04:00 +4°C° 0 mm 3 mps 761 mmHg 69%
    05:00 +3°C° 0 mm 3 mps 761 mmHg 71%
    06:00 +3°C° 0 mm 3 mps 761 mmHg 73%
    07:00 +4°C° 0 mm 4 mps 760 mmHg 65%
    08:00 +6°C° 0 mm 5 mps 760 mmHg 57%
    09:00 +7°C° 0 mm 6 mps 760 mmHg 49%
    10:00 +8°C° 0.1 mm 7 mps 759 mmHg 48%
    11:00 +7°C° 0.1 mm 8 mps 759 mmHg 48%
    12:00 +8°C° 0.1 mm 9 mps 758 mmHg 47%
    13:00 +7°C° 0.8 mm 8 mps 757 mmHg 54%
    14:00 +6°C° 0.8 mm 7 mps 757 mmHg 60%
    15:00 +5°C° 0.8 mm 7 mps 757 mmHg 67%
    16:00 +7°C° 0 mm 6 mps 757 mmHg 59%
    17:00 +7°C° 0 mm 5 mps 757 mmHg 52%
    18:00 +7°C° 0 mm 5 mps 757 mmHg 44%
    19:00 +6°C° 0 mm 4 mps 757 mmHg 48%
    20:00 +5°C° 0 mm 3 mps 757 mmHg 52%
    21:00 +4°C° 0 mm 3 mps 758 mmHg 57%
    22:00 +4°C° 0 mm 3 mps 758 mmHg 60%
    23:00 +3°C° 0 mm 3 mps 758 mmHg 62%

    24 March, Sunday

    Time Temperature Precipitation Wind Pressure Humidity
    00:00 +3°C° 0 mm 3 mps 758 mmHg 65%
    01:00 +2°C° 0 mm 3 mps 758 mmHg 67%
    02:00 +2°C° 0 mm 3 mps 759 mmHg 69%
    03:00 +1°C° 0 mm 3 mps 759 mmHg 71%
    04:00 +1°C° 0 mm 3 mps 759 mmHg 72%
    05:00 0°C° 0 mm 4 mps 759 mmHg 73%
    06:00 -1°C° 0 mm 4 mps 759 mmHg 74%
    07:00 0°C° 0 mm 4 mps 760 mmHg 71%
    08:00 +1°C° 0 mm 5 mps 760 mmHg 68%
    09:00 +2°C° 0 mm 6 mps 760 mmHg 65%
    10:00 +3°C° 0 mm 6 mps 760 mmHg 61%
    11:00 +4°C° 0 mm 6 mps 760 mmHg 57%
    12:00 +4°C° 0 mm 6 mps 759 mmHg 53%
    13:00 +5°C° 0 mm 6 mps 759 mmHg 48%
    14:00 +6°C° 0 mm 7 mps 758 mmHg 42%
    15:00 +8°C° 0 mm 7 mps 758 mmHg 36%
    16:00 +8°C° 0.2 mm 7 mps 757 mmHg 41%
    17:00 +7°C° 0.2 mm 6 mps 757 mmHg 47%
    18:00 +7°C° 0.2 mm 6 mps 756 mmHg 52%
    19:00 +7°C° 0.1 mm 6 mps 756 mmHg 58%
    20:00 +7°C° 0.1 mm 6 mps 756 mmHg 64%
    21:00 +7°C° 0.1 mm 6 mps 755 mmHg 69%
    22:00 +6°C° 0.2 mm 7 mps 755 mmHg 69%
    23:00 +5°C° 0.2 mm 8 mps 755 mmHg 69%

    25 March, Monday

    Time Temperature Precipitation Wind Pressure Humidity
    00:00 +5°C° 0.2 mm 8 mps 755 mmHg 68%
    01:00 +4°C° 0 mm 8 mps 756 mmHg 65%
    02:00 +3°C° 0 mm 7 mps 756 mmHg 61%
    03:00 +2°C° 0 mm 6 mps 757 mmHg 58%
    04:00 +2°C° 0 mm 6 mps 757 mmHg 61%
    05:00 +1°C° 0 mm 5 mps 758 mmHg 64%
    06:00 +1°C° 0 mm 5 mps 758 mmHg 67%
    07:00 +2°C° 0 mm 6 mps 759 mmHg 58%
    08:00 +4°C° 0 mm 7 mps 759 mmHg 49%
    09:00 +5°C° 0 mm 8 mps 759 mmHg 40%
    10:00 +6°C° 0 mm 9 mps 759 mmHg 38%
    11:00 +6°C° 0 mm 9 mps 759 mmHg 35%
    12:00 +7°C° 0 mm 10 mps 759 mmHg 33%
    13:00 +7°C° 0 mm 10 mps 759 mmHg 32%
    14:00 +8°C° 0 mm 9 mps 759 mmHg 31%
    15:00 +8°C° 0 mm 9 mps 760 mmHg 30%
    16:00 +7°C° 0 mm 8 mps 760 mmHg 32%
    17:00 +7°C° 0 mm 6 mps 761 mmHg 34%
    18:00 +7°C° 0 mm 5 mps 761 mmHg 36%
    19:00 +6°C° 0 mm 4 mps 762 mmHg 39%
    20:00 +5°C° 0 mm 3 mps 762 mmHg 42%
    21:00 +6°C° 0 mm 2 mps 763 mmHg 45%
    22:00 +5°C° 0 mm 2 mps 763 mmHg 47%
    23:00 +5°C° 0 mm 2 mps 764 mmHg 48%
    Show more